Tracking 35331 objects as of 17-Sep-2026
HD Live streaming from Space Station
objects crossing your sky now

SL-14 DEB


SL-14 DEB is no longer on orbit


NORAD ID: 29222
Int'l Code: 1985-108AW
Launch date: November 22, 1985
Source: Commonwealth of Independent States (former USSR) (CIS)
Launch site: PLESETSK MISSILE AND SPACE COMPLEX (PKMTR)
Decay date: 2006-08-15

Note: This is SATELLITE DEBRIS
Your satellite tracking list
Your tracking list is empty




NASA's NSSDC Master Catalog

Two Line Element Set (TLE):
1 29222U 85108AW  06221.98598545  .01022800  00000-0  24146-1 0  9994
2 29222 082.4495 223.6816 0057733 148.2435 212.2911 15.40066409 14021
Source of the keplerian elements: AFSPC